Location: Beaucourt-en-Santerre
(49.7918°N, 2.5851°E)
Time: 11:23:46
(UTC+00:00)

Daily predictions for brighter satellites

Satellite Brightness Start Highest point End
(mag) Time Altitude Azimuth Time Altitude Azimuth Time Altitude Azimuth
Cosmos 44 Rocket 3.6 20:02:16 10° SW 20:07:29 87° NW 20:12:46 10° NE
USA 186 4.5 20:11:47 10° SW 20:13:50 17° W 20:15:48 10° NW
Cosmos 2219 Rocket 4.4 20:11:13 10° N 20:14:24 15° NNE 20:17:33 10° ENE
Ariane Rocket 3.4 20:14:17 10° S 20:19:19 65° WSW 20:24:23 10° NNW
GEOS 3 Rocket 4.4 20:15:23 10° NE 20:20:32 58° NW 20:25:34 10° WSW
SL-16 R/B 2.7 20:16:54 10° NNW 20:22:26 49° NE 20:27:54 10° SE
Cosmos 1782 3.9 20:22:57 10° N 20:26:33 30° ENE 20:30:03 10° SE
Cosmos 371 Rocket 3.4 20:22:25 10° NNW 20:27:14 77° WSW 20:32:03 10° SSE
ARIANE 5 R/B 3.4 20:26:58 10° SE 20:31:05 37° ENE 20:35:12 10° N
Cosmos 1271 Rocket 3.2 20:29:18 10° N 20:33:11 47° ENE 20:36:55 11° SSE
USA 276 2.2 20:32:38 10° W 20:35:46 61° SSW 20:38:32 12° ESE
BREEZE-M DEB (TANK) 2.7 20:34:11 10° W 20:36:57 49° SSW 20:43:14 11° SE
SPOT 1/Viking Rocket 3.6 20:32:02 10° SSE 20:37:14 79° ENE 20:42:28 10° NNW
Cosmos 1076 Rocket 3.7 20:34:41 10° SSW 20:39:02 79° WNW 20:43:25 10° N
Cosmos 1151 Rocket 3.9 20:36:08 10° N 20:40:10 35° ENE 20:43:40 13° SE
ATLAS 5 CENTAUR R/B 4.0 20:36:58 10° NNW 20:40:53 22° NNE 20:45:18 10° ENE
OBJECT-B 4.0 20:40:57 10° WSW 20:41:56 11° W 20:42:55 10° WNW
ATLAS 2AS CENTAUR R/B 3.5 20:37:16 10° SW 20:45:09 69° NW 20:52:48 10° NE
Cosmos 923 Rocket 4.5 20:43:19 10° S 20:48:19 43° ESE 20:53:22 10° NE
ATLAS 3B R/B 3.3 20:42:38 10° NW 20:49:30 55° WSW 20:56:39 10° SSE
Cosmos 1833 Rocket 4.4 20:44:55 10° WSW 20:50:08 37° NW 20:55:23 10° NNE
Terra 2.7 20:47:56 13° SE 20:51:42 37° ENE 20:56:04 10° N
USA 267 4.4 20:49:55 10° E 20:54:17 19° ESE 20:58:38 10° SSE
SPOT 5 3.0 20:50:48 14° SE 20:54:17 49° ENE 20:58:33 10° N
Cosmos 2082 Rocket 2.9 20:51:04 10° SW 20:56:37 58° NW 21:02:15 10° NNE
Cosmos 1092 Rocket 4.0 20:50:47 10° S 20:57:01 75° E 21:03:20 10° NNE
Meteor 2-19 Rocket 4.4 20:51:04 10° S 20:57:08 85° E 21:03:13 10° N
Cosmos 2056 Rocket 4.2 20:52:53 10° NNW 20:58:04 44° ENE 21:02:09 15° SE
Cosmos 1633 4.0 20:55:01 10° SW 20:58:26 39° WNW 21:01:52 10° N
BREEZE-M DEB (TANK) 1.5 20:59:31 10° WSW 21:02:01 63° S 21:03:12 18° E
Cosmos 332 Rocket 4.2 20:59:43 10° NNW 21:04:32 60° WSW 21:08:58 12° S
ERS-1 Rocket 3.1 21:00:35 15° SSE 21:04:43 65° ENE 21:09:43 10° N
Cosmos 2360 Rocket 2.7 21:00:20 10° NNW 21:05:48 48° NE 21:10:08 16° SE
SL-27 R/B 4.1 21:06:23 17° ESE 21:06:57 17° E 21:09:23 10° ENE
NOSS 2-1 (D) 4.3 21:08:17 19° ESE 21:08:17 19° ESE 21:10:28 10° ENE
Cosmos 158 Rocket 4.0 21:02:59 10° SSW 21:08:10 87° WNW 21:13:31 10° NNE
Cosmos 2026 Rocket 4.0 21:03:40 10° S 21:09:59 76° E 21:16:16 10° NNE
GP-B 3.1 21:07:43 10° N 21:12:12 86° E 21:16:14 12° S
ISS -2.1 21:11:46 10° W 21:14:29 23° SW 21:15:56 17° S
Cosmos 2333 Rocket 3.4 21:11:06 10° NNW 21:16:13 33° NE 21:20:38 13° ESE
Spot 2 Rocket 3.7 21:14:48 13° S 21:19:21 70° WSW 21:24:29 10° NNW
Cosmos 1371 Rocket 4.1 21:14:17 10° NNW 21:19:40 70° ENE 21:23:22 20° SE
Cosmos 1812 2.9 21:17:06 10° N 21:20:56 57° ENE 21:23:04 24° SSE
Cosmos 2112 Rocket 4.2 21:17:49 10° S 21:22:54 53° ESE 21:28:02 10° NNE
Cosmos 220 Rocket 4.0 21:18:47 10° NNW 21:23:08 80° ENE 21:25:50 23° SSE
Cosmos 1680 Rocket 3.5 21:18:10 10° S 21:23:22 62° ESE 21:28:34 10° NNE
CZ-2C R/B 4.1 21:19:34 10° N 21:24:06 65° WNW 21:28:31 10° SSW
Cosmos 1980 Rocket 4.2 21:22:30 10° NW 21:26:34 21° W 21:30:37 10° SSW
Okean 3 Rocket 3.6 21:24:58 16° S 21:28:29 72° E 21:33:01 10° NNE
USA 234 3.8 21:24:10 10° E 21:30:34 58° NNE 21:36:58 10° WNW
Cosmos 292 Rocket 4.3 21:26:15 10° NNW 21:30:53 48° ENE 21:33:40 22° SE
Cosmos 2237 Rocket 4.4 21:32:31 10° N 21:36:20 18° NE 21:40:08 10° ENE
Cosmos 2322 Rocket 2.4 21:32:28 10° NNW 21:38:05 68° WSW 21:41:46 22° SSE
Resurs 01 Rocket 4.2 21:39:00 10° SW 21:41:48 16° W 21:44:38 10° NW
Cosmos 1408 Rocket 3.7 21:40:12 27° SSE 21:42:22 53° E 21:46:36 10° NNE
Meteor 2-14 Rocket 4.4 21:43:59 16° S 21:49:03 82° E 21:55:14 10° NNE
Cosmos 1553 Rocket 4.0 21:45:11 10° NNW 21:51:16 76° W 21:55:36 20° S
Cosmos 2084 3.3 21:48:52 17° SSW 21:51:53 56° SE 21:56:00 10° NE
CZ-4B DEB 4.2 21:53:29 42° S 21:54:25 76° WSW 21:57:36 10° NNW
Gbstr 26 Del rocket 3.9 21:51:19 10° W 21:54:37 28° SW 21:55:27 26° SSW
Cosmos 2266 Rocket 4.2 21:53:29 25° SSE 21:57:02 56° E 22:03:07 10° NNE
Cosmos 1862 3.2 21:57:03 27° SSW 21:59:08 86° W 22:03:09 10° N
Cosmos 2219 Rocket 2.7 21:54:16 10° NNW 21:59:44 51° NE 22:02:58 24° ESE
Cosmos 1624 Rocket 4.2 21:54:58 10° NNW 22:00:08 64° WSW 22:02:57 27° S
Cosmos 2228 Rocket 3.6 22:00:15 10° N 22:04:31 45° ENE 22:06:05 32° SE
Cosmos 1515 Rocket 3.6 22:00:15 10° NNW 22:04:43 78° W 22:06:43 32° S
H-2A R/B 3.4 22:01:14 10° NNE 22:05:27 73° ESE 22:07:14 33° S
NOSS 2-1 (E) 2.8 22:05:22 48° S 22:06:00 62° SE 22:09:26 10° NE
SL-16 R/B 3.4 22:01:20 10° NW 22:06:22 34° WSW 22:09:55 17° SSW
ARIANE 5 R/B 4.2 22:04:24 13° SSW 22:07:37 28° W 22:11:29 10° NW
NOSS 3-1 (C) 4.1 22:01:28 10° NW 22:08:49 86° NE 22:14:30 24° SE
Cosmos 2333 4.2 22:03:46 10° NNW 22:09:24 79° ENE 22:12:13 31° SE
Cosmos 1420 Rocket 4.1 22:05:50 10° NNW 22:11:11 77° WSW 22:13:43 32° S
COSMOS 2455 3.4 22:09:10 29° SSE 22:11:14 38° ESE 22:16:44 10° NE
USA 276 4.3 22:09:23 10° W 22:10:46 16° SW 22:10:46 16° SW
Cosmos 883 Rocket 4.5 22:07:23 10° N 22:13:38 75° E 22:16:57 30° SSE
COSMOS 2428 3.1 22:08:53 10° NNW 22:14:30 55° NE 22:17:35 26° ESE
Cosmos 1655 Rocket 4.0 22:12:44 24° S 22:16:52 85° E 22:23:19 10° N
S3M 4.2 22:15:12 10° NNW 22:21:33 68° W 22:25:24 25° S
USA 229 DEB 4.0 22:15:47 10° NW 22:23:02 72° NE 22:28:16 22° SE
USA 229 4.0 22:15:53 10° NW 22:23:08 72° NE 22:28:23 22° SE
Spot 4 4.2 22:21:45 34° SE 22:23:38 56° ENE 22:28:21 10° N
ATLAS 5 CENTAUR R/B 2.7 22:21:16 10° NW 22:26:30 56° NE 22:30:39 21° ESE
Cosmos 1174 3.5 22:23:39 10° NW 22:26:29 51° WSW 22:26:29 51° WSW
Terra 3.1 22:26:49 19° SW 22:29:29 32° W 22:33:46 10° NNW
Cosmos 1452 Rocket 3.5 22:25:26 10° NNW 22:30:43 84° ENE 22:32:49 38° SSE
Cosmos 1707 Rocket 4.4 22:27:01 10° N 22:31:08 39° ENE 22:32:18 32° ESE
COSMOS 2487 3.0 22:31:49 41° E 22:31:49 41° E 22:34:40 10° NE
ALOS 2 3.4 22:33:57 32° ESE 22:35:20 41° ENE 22:39:28 10° N
USA 267 3.2 22:31:45 10° ENE 22:38:14 61° SE 22:44:41 10° SW
Meteor 1-27 Rocket 3.9 22:36:04 10° NNW 22:41:39 67° W 22:44:14 33° S
SL-27 R/B 3.6 22:39:50 22° WSW 22:41:42 41° WNW 22:45:09 10° N
NOSS 3-1 (A) 4.0 22:36:09 10° NW 22:43:30 87° NE 22:48:48 26° SE
Cosmos 2360 Rocket 3.3 22:44:39 10° NW 22:49:38 33° WSW 22:51:52 25° SSW
IRIDIUM 104 4.4 22:45:01 10° N 22:50:13 70° W 22:52:18 36° SSW
Cosmos 1805 Rocket 3.5 22:49:13 50° S 22:50:21 84° E 22:54:50 10° NNE
NOSS 2-1 (C) 4.0 22:48:04 15° WSW 22:50:27 44° NW 22:53:51 10° NE
Cosmos 1110 Rocket 4.0 22:51:25 10° NNW 22:56:47 76° ENE 22:58:40 41° SE
Meteor 1-20 Rocket 4.2 22:54:51 40° S 22:56:53 72° E 23:02:35 10° NNE
NOSS 2-1 (D) 4.3 22:55:30 13° WSW 22:58:12 38° NW 23:01:32 10° NNE
Cosmos 1980 4.3 22:52:50 10° NNW 22:58:21 49° NE 23:01:19 26° ESE
Cosmos 2333 Rocket 2.5 22:55:16 10° NW 23:00:45 53° WSW 23:02:38 37° SSW
Cosmos 1500 Rocket 4.4 22:59:40 28° SW 23:01:35 45° WNW 23:05:53 10° N
Cosmos 1331 Rocket 4.0 22:56:56 10° NNW 23:02:13 76° ENE 23:03:58 42° SE
Cosmos 1244 Rocket 4.5 23:03:47 38° SSE 23:06:12 70° E 23:12:23 10° NNE
Cosmos 972 Rocket 4.1 23:07:27 32° SW 23:09:57 71° WNW 23:14:58 10° NNE
COBE Rocket 4.3 23:09:07 37° SW 23:10:23 47° W 23:14:56 10° NNW
Cosmos 2322 4.2 23:05:28 10° NW 23:10:57 48° WSW 23:12:44 36° SSW
NOSS 0 Rocket 3.9 23:07:03 10° NNW 23:13:20 84° ENE 23:16:01 37° SE
USA 234 3.2 23:10:02 30° SE 23:13:30 73° SW 23:20:05 10° WNW
Cosmos 2297 Rocket 3.2 23:17:11 28° ESE 23:18:00 29° ESE 23:22:49 10° NE
Cosmos 468 4.4 23:16:08 41° SSW 23:18:01 87° WNW 23:23:17 10° NNE
Lacrosse 5 3.3 23:21:59 23° ESE 23:21:59 23° ESE 23:24:57 10° ENE
Cosmos 2322 Rocket 4.5 23:19:20 10° WNW 23:21:02 11° W 23:22:43 10° WSW
Cosmos 2237 Rocket 2.4 23:15:52 10° NNW 23:21:32 65° ENE 23:24:02 34° SE
Cosmos 2084 Rocket 3.6 23:18:50 10° NW 23:22:59 68° NE 23:24:07 46° ESE
NOSS 2-2 (E) 4.5 23:19:06 10° NW 23:24:13 72° NE 23:28:32 24° SE
Meteor 1-18 Rocket 4.2 23:19:03 10° NNW 23:24:57 89° WSW 23:26:57 44° S
Cosmos 1500 3.1 23:26:56 72° ESE 23:27:02 73° E 23:30:54 10° NNE
Cosmos 1470 Rocket 3.9 23:29:03 45° ESE 23:29:28 47° E 23:33:38 10° NNE
Cosmos 2227 Rocket 3.3 23:28:53 26° ESE 23:29:44 27° ESE 23:34:26 10° NE
Sich 1 3.6 23:28:46 39° WSW 23:29:55 51° WNW 23:34:11 10° N
Okean 1 3.4 23:27:29 10° NNW 23:31:27 60° W 23:31:46 57° WSW
Meteor 1-25 Rocket 4.4 23:30:16 36° SW 23:32:33 67° WNW 23:38:07 10° N
Cosmos 1633 Rocket 2.9 23:33:06 64° S 23:33:45 88° ESE 23:38:09 10° N
Cosmos 494 Rocket 3.9 23:33:17 43° SW 23:34:59 79° WNW 23:40:10 10° NNE
Cosmos 1933 Rocket 4.4 23:35:34 36° ESE 23:36:08 37° E 23:40:16 10° NNE
Cosmos 1666 Rocket 3.6 23:37:07 55° SW 23:37:58 71° WNW 23:42:26 10° N
Cosmos 1048 Rocket 4.4 23:39:39 30° SW 23:41:57 56° WNW 23:47:01 10° NNE
Cosmos 2219 Rocket 3.2 23:38:37 10° NW 23:43:28 31° WSW 23:44:40 28° SW
SL-08 R/B 4.4 23:45:17 40° SSW 23:47:42 81° W 23:53:54 10° N
NOSS 2-2 (C) 4.3 23:43:21 10° NW 23:48:27 83° NE 23:52:23 27° SE
SL-16 R/B 3.2 23:43:22 10° NNW 23:48:47 43° NE 23:52:42 18° ESE
Cosmos 1269 Rocket 4.2 23:50:05 47° SSE 23:51:11 57° ESE 23:56:23 10° NNE
PSLV R/B 4.1 23:46:42 10° NNE 23:51:23 51° E 23:52:12 45° SE
Resurs 1-4 Rocket 4.4 23:50:56 10° ENE 23:52:55 12° E 23:54:52 10° ESE
